TimeCST,TemperatureF,Dew PointF,Humidity,Sea Level PressureIn,VisibilityMPH,Wind Direction,Wind SpeedMPH,Gust SpeedMPH,PrecipitationIn,Events,Conditions,WindDirDegrees,DateUTC
12:53 AM,37.9,27.0,65,30.49,10.0,NE,6.9,-,N/A,,Clear,40,2013-11-24 06:53:00
1:53 AM,37.0,26.1,65,30.51,10.0,NE,8.1,-,N/A,,Clear,40,2013-11-24 07:53:00
2:53 AM,36.0,26.1,67,30.51,10.0,NNE,8.1,-,N/A,,Clear,30,2013-11-24 08:53:00
3:53 AM,35.1,26.1,70,30.51,10.0,NE,8.1,-,N/A,,Clear,40,2013-11-24 09:53:00
4:53 AM,34.0,26.1,73,30.53,10.0,NNE,9.2,-,N/A,,Clear,30,2013-11-24 10:53:00
5:53 AM,33.1,23.0,66,30.54,10.0,NE,10.4,-,N/A,,Clear,40,2013-11-24 11:53:00
6:53 AM,32.0,21.0,64,30.57,10.0,NE,8.1,-,N/A,,Clear,40,2013-11-24 12:53:00
7:53 AM,32.0,19.9,61,30.58,10.0,NNE,9.2,19.6,N/A,,Clear,30,2013-11-24 13:53:00
8:53 AM,34.0,21.0,59,30.58,10.0,NE,11.5,18.4,N/A,,Clear,40,2013-11-24 14:53:00
9:53 AM,37.0,21.0,52,30.58,10.0,NE,10.4,16.1,N/A,,Clear,50,2013-11-24 15:53:00
10:53 AM,39.0,19.9,46,30.56,10.0,ENE,8.1,17.3,N/A,,Clear,60,2013-11-24 16:53:00
11:53 AM,39.9,19.9,45,30.49,10.0,NE,13.8,17.3,N/A,,Clear,40,2013-11-24 17:53:00
12:53 PM,42.1,19.9,41,30.45,10.0,NE,10.4,17.3,N/A,,Scattered Clouds,50,2013-11-24 18:53:00
1:53 PM,43.0,21.0,42,30.43,10.0,Variable,6.9,17.3,N/A,,Clear,0,2013-11-24 19:53:00
2:53 PM,43.0,21.0,42,30.43,10.0,North,8.1,-,N/A,,Scattered Clouds,10,2013-11-24 20:53:00
3:53 PM,42.1,21.9,45,30.43,10.0,North,8.1,-,N/A,,Scattered Clouds,10,2013-11-24 21:53:00
4:53 PM,39.9,21.9,49,30.43,10.0,North,6.9,16.1,N/A,,Clear,360,2013-11-24 22:53:00
5:53 PM,39.0,21.9,50,30.44,10.0,NE,9.2,-,N/A,,Scattered Clouds,40,2013-11-24 23:53:00
6:53 PM,37.0,24.1,59,30.42,10.0,NE,10.4,-,0.00,Rain,Light Rain,40,2013-11-25 00:53:00
7:53 PM,37.0,25.0,62,30.43,10.0,ENE,4.6,-,0.00,,Overcast,60,2013-11-25 01:53:00
8:53 PM,36.0,24.1,62,30.43,10.0,ENE,8.1,-,0.00,,Overcast,60,2013-11-25 02:53:00
9:53 PM,35.1,26.1,70,30.42,10.0,NE,6.9,-,0.00,,Overcast,50,2013-11-25 03:53:00
10:53 PM,34.0,27.0,75,30.40,10.0,East,6.9,-,0.00,,Overcast,80,2013-11-25 04:53:00
11:53 PM,34.0,28.0,79,30.38,10.0,ENE,6.9,-,0.00,,Overcast,60,2013-11-25 05:53:00